Location: Peebles
(55.6412°N, 3.1714°W)
Time: 06:53:49
(UTC+00:00)

DOVE 4 - Pass Details

Date: 28 September 2023
Orbit: 583 x 785 km, 97.8° (Epoch: 03 December)

Event Time Altitude Azimuth Distance (km) Brightness Sun altitude
Rises 22:24:12 0° 23° (NNE) 3,095 ? -27.7°
Reaches altitude 10° 22:26:55 10° 39° (NE) 2,209 ? -28.0°
Enters shadow 22:27:10 11° 41° (NE) 2,141 ? -28.0°
